Weather History for Ukiah, CA

Change the Weather History Date:

Thursday, November 17, 2011

  Actual Average Record
Temperature  
Mean Temperature 48 °F 50 °F  
Max Temperature 58 °F 62 °F 88 °F (1932)
Min Temperature 37 °F 39 °F 23 °F (1916)
Degree Days  
Heating Degree Days 17 15  
Month to date heating degree days 259 207  
Since 1 July heating degree days 374 407  
Cooling Degree Days 0 0  
Month to date cooling degree days 0 0  
Year to date cooling degree days 895 835  
Moisture  
Dew Point 44 °F    
Average Humidity 86    
Maximum Humidity 100    
Minimum Humidity 72    
Precipitation  
Precipitation 0.05 in 0.15 in 2.46 in (1983)
Month to date precipitation 0.85 2.12  
Year to date precipitation 26.50 28.25  
Since 1 July precipitation 4.46 4.87  
Snow  
Snow 0.00 in - - ()
Month to date snowfall 0.0  
Since 1 July snowfall 0.0  
Since 1 September snowfall 0.0  
Snow Depth 0.00 in    
Sea Level Pressure  
Sea Level Pressure 30.15 in    
Wind  
Wind Speed 2 mph (NW)    
Max Wind Speed 10 mph    
Max Gust Speed -    
Visibility 9 miles    
Events Rain    
T = Trace of Precipitation, MM = Missing Value Source: NWS Daily Summary

Daily Weather History Graph

Daily Weather History Graph

Search for Another Location

Airport:

Trip Planner

Search our weather history database for the weather conditions in past years. The results will help you decide how hot, cold, wet, or windy it might be!

Date:

Astronomy

Nov. 17, 2011 Rise Set
Actual Time 6:58 AM PST 4:57 PM PST
Civil Twilight 6:29 AM PST 5:25 PM PST
Nautical Twilight 5:56 AM PST 5:58 PM PST
Astronomical Twilight 5:25 AM PST 6:29 PM PST
Moon 11:22 PM PST (11/17) 12:10 PM PST (11/17)
Length of Visible Light 10h 56m
Length of Day
9h 59m
Waning Gibbous, 59% of the Moon is Illuminated
Nov 17
Waning Gibbous
Nov 18
Last Quarter
Nov 24
New
Dec 2
First Quarter
Dec 10
Full

Hourly Weather History & Observations

Time (PST) Temp. Dew Point Humidity Pressure Visibility Wind Dir Wind Speed Gust Speed Precip Events Conditions
12:56 AM 43.0 °F 41.0 °F 93% 30.22 in 10.0 mi Calm Calm - N/A   Clear
1:44 AM 42.8 °F 39.2 °F 87% 30.22 in 10.0 mi Calm Calm - N/A   Scattered Clouds
1:53 AM 39.2 °F 39.2 °F 100% 30.23 in 10.0 mi Calm Calm - N/A   Mostly Cloudy
1:56 AM 39.9 °F 39.0 °F 97% 30.22 in 10.0 mi Calm Calm - N/A   Mostly Cloudy
2:19 AM 41.0 °F 39.2 °F 93% 30.23 in 10.0 mi Calm Calm - N/A   Scattered Clouds
2:56 AM 39.9 °F 37.9 °F 93% 30.22 in 10.0 mi Calm Calm - N/A   Clear
3:27 AM 39.2 °F 39.2 °F 100% 30.22 in 10.0 mi Calm Calm - N/A   Scattered Clouds
3:36 AM 39.2 °F 39.2 °F 100% 30.22 in 10.0 mi Calm Calm - N/A   Mostly Cloudy
3:56 AM 39.0 °F 37.9 °F 96% 30.20 in 10.0 mi Calm Calm - N/A   Scattered Clouds
4:56 AM 39.9 °F 39.0 °F 97% 30.20 in 10.0 mi Calm Calm - N/A   Partly Cloudy
5:52 AM 39.2 °F 37.4 °F 93% 30.20 in 10.0 mi Calm Calm - N/A   Mostly Cloudy
5:56 AM 37.9 °F 37.9 °F 100% 30.20 in 10.0 mi Calm Calm - N/A   Mostly Cloudy
6:27 AM 39.2 °F 37.4 °F 93% 30.20 in 10.0 mi Calm Calm - N/A   Scattered Clouds
6:36 AM 39.2 °F 37.4 °F 93% 30.21 in 10.0 mi Calm Calm - N/A   Mostly Cloudy
6:56 AM 39.0 °F 37.9 °F 96% 30.20 in 10.0 mi Calm Calm - N/A   Overcast
7:16 AM 39.2 °F 39.2 °F 100% 30.20 in 10.0 mi Calm Calm - N/A   Mostly Cloudy
7:56 AM 42.1 °F 39.9 °F 92% 30.20 in 10.0 mi Calm Calm - N/A   Mostly Cloudy
8:11 AM 42.8 °F 39.2 °F 87% 30.20 in 10.0 mi Calm Calm - N/A   Scattered Clouds
8:56 AM 45.0 °F 42.1 °F 90% 30.20 in 10.0 mi Calm Calm - N/A   Partly Cloudy
9:40 AM 46.4 °F 44.6 °F 93% 30.20 in 10.0 mi Calm Calm - N/A   Overcast
9:56 AM 48.0 °F 44.1 °F 86% 30.19 in 10.0 mi Calm Calm - N/A   Overcast
10:03 AM 48.2 °F 44.6 °F 87% 30.19 in 10.0 mi Calm Calm - N/A   Overcast
10:27 AM 50.0 °F 44.6 °F 82% 30.19 in 10.0 mi Calm Calm - N/A   Overcast
10:56 AM 51.1 °F 45.0 °F 80% 30.17 in 10.0 mi Calm Calm - N/A   Overcast
11:56 AM 55.9 °F 46.9 °F 72% 30.13 in 10.0 mi Calm Calm - N/A   Overcast
12:25 PM 55.4 °F 48.2 °F 77% 30.12 in 10.0 mi Calm Calm - N/A   Overcast
12:56 PM 55.9 °F 50.0 °F 80% 30.10 in 10.0 mi Calm Calm - N/A   Overcast
1:44 PM 55.4 °F 53.6 °F 94% 30.09 in 5.0 mi Calm Calm - 0.01 in Rain Light Rain
1:56 PM 55.0 °F 53.1 °F 93% 30.08 in 3.0 mi NW 3.5 mph - 0.02 in Rain Light Rain
2:39 PM 55.4 °F 53.6 °F 94% 30.06 in 4.0 mi Calm Calm - 0.00 in Rain Light Rain
2:56 PM 55.0 °F 54.0 °F 96% 30.06 in 5.0 mi Calm Calm - 0.01 in Rain Light Rain
3:54 PM 55.4 °F 53.6 °F 94% 30.05 in 10.0 mi Calm Calm - 0.01 in Rain Light Rain
3:56 PM 55.9 °F 54.0 °F 93% 30.05 in 10.0 mi Calm Calm - 0.01 in   Overcast
4:56 PM 55.0 °F 50.0 °F 83% 30.04 in 10.0 mi NNW 10.4 mph - 0.00 in   Overcast
5:56 PM 52.0 °F 46.0 °F 80% 30.04 in 10.0 mi NW 6.9 mph - N/A   Clear
6:56 PM 51.1 °F 46.0 °F 83% 30.05 in 10.0 mi WNW 5.8 mph - N/A   Mostly Cloudy
7:56 PM 48.2 °F 42.8 °F 82% 30.06 in 10.0 mi NNW 5.8 mph - N/A   Clear
8:56 PM 48.9 °F 45.0 °F 86% 30.05 in 10.0 mi Calm Calm - N/A   Overcast
9:56 PM 48.2 °F 46.4 °F 93% 30.06 in 7.0 mi Calm Calm - N/A Rain Light Rain
10:56 PM 48.0 °F 46.0 °F 93% 30.05 in 10.0 mi Calm Calm - 0.01 in   Mostly Cloudy
11:56 PM 46.9 °F 44.1 °F 90% 30.05 in 10.0 mi Calm Calm - N/A   Overcast